Погода в Невинномысске

Погода в Невинномысске : погода сейчас, прогноз погоды и архив. Всё, что Вы хотите узнать о погоде в Невинномысске!

Поиск расширенной информации на нашем сайте:

Другие новости

Новости СМИ2

Главная страница сайта

Новости сайта

02.10.2013

Напоминаем, что на нашем новом сайте вы можете получить высокодетализированные прогнозы погоды по пунктам России, СНГ и мира (включающие важные для авиации метеовеличины, такие как направление и скорость ветра, видимость, явления погоды, количество и форма облачности, нижняя и верхняя граница облачности), а также ознакомиться с разнообразными материалами по авиационной метеорологии и подборкой полезных ссылок на эту тему.

Сайт Метеоцентр.Азия посвящён разработке технологий оптимизации авиаметеорологического обслуживания, включая проектирование и перспективное создание нескольких автоматизированных авиаметеорологических систем:
- система выпуска высокодетальных прогностических карт явлений погоды для нижнего воздушного пространства по России и ближнему зарубежью;
- система верификации прогнозов TAF (выпускаемых синоптиками официальных АМСГ РФ и ближнего зарубежья) и AUTOTAF (выпускаемых сайтом Метеоцентр.Азия) - выявление ошибок, онлайн-сопоставление с фактической погодой METAR, автоматическое внесение коррективов в прогнозы при резком отклонении фактической погоды от прогноза, подсчёт оправдываемости прогнозов по элементам и в целом;
- система обработки, анализа и отображения авиаметеорологической информации для применения провайдерами метеорологической информации.

Рекомендуем: Возвращаемся в Гондар и, заселившись в гостиницу.

Погода в Невинномысске - сегодня

Время (UTC), дата Ветер
(°,м/с) 
Видим.   Явления Облачность Т
(°С)
Тd
(°С)
f(%) Тe
(°С)
Pmin
(гПа)
dP
(гПа)
Po
(мм)
O2
(г/м3)
Тmin Tmax R s Состояние
почвы
06 17.02.17 210 (ЮЗ) 20000 м    ясно 
-9.2 -13.8 69 -11  1032.9  0.9  741  310  -12.1         
09 17.02.17 180 (Ю) 20000 м    ясно 
-4.1 -12.8 51 -4  1031.4  -0.6  741  304           
12 17.02.17 090 (В) 20000 м    ясно 
-2.5 -12.1 48 -4  1029.6  -1.5  740  302           
15 17.02.17 100 (В) 20000 м    ясно 
-5.2 -11.9 59 -5  1030.3  0.2  740  305    -2.3       
18 17.02.17 тихо ()   20000 м    ясно 
-9.2 -12.5 77 -9  1031.4  0.4  740  310           
21 17.02.17 180 (Ю) 20000 м    ясно 
-11.3 -13.3 85 -11  1031.2  -0.5  740  312           
00 18.02.17 тихо ()   20000 м    ясно 
-12.5 -14.5 85 -13  1031.1  -0.3  740  314           
03 18.02.17 тихо ()   20000 м    ясно 
-13.1 -15.2 84 -13  1031.4  -0.1  740  314  -13.2         
06 18.02.17 тихо ()   20000 м    ясно 
-7.1 -11.5 71 -7  1030.3  0.1  740  307  -13.4         
09 18.02.17 050 (СВ) 20000 м    ясно 
+1.5 -7.3 52 +1  1027.4  -1.4  739  297           
12 18.02.17 050 (СВ) 20000 м    10/0 верхняя 
[Cs]
+2.4 -6.3 53 +1  1026.1  -1.1  738  295           
15 18.02.17 060 (СВ) 20000 м    10/0 средняя 
[Ac und]
+0.3 -5.6 65 +1  1026.4  0.1  738  297    +2.7       
18 18.02.17 060 (СВ) 20000 м    10/0 средняя 
[Ac und]
-1.3 -5 76 -1  1026.9  0.3  738  299           
21 18.02.17 170 (Ю) 20000 м    ясно 
-4.1 -6.8 81 -4  1028  0.6  738  303           
00 19.02.17 190 (Ю) 20000 м    ясно 
-7.6 -9.6 86 -7  1029.3  0.7  739  307           
03 19.02.17 тихо ()   20000 м    ясно 
-9.4 -11.1 87 -9  1030.7  1.1  740  310  -9.4         
06 19.02.17 тихо ()   20000 м    ясно 
-3.4 -7.5 73 -3  1030.7  0.9  740  303  -9.7         
09 19.02.17 040 (СВ) 20000 м    ясно 
+5.6 -6 43 +6  1029.5  0.2  741  293           
12 19.02.17 280 (З) 20000 м    8/0 верхняя 
[Ci]
+8.1 -12 23 +8  1028.6  -0.5  740  291           
15 19.02.17 тихо ()   20000 м    8/0 верхняя 
[Ci]
+2.2 -7.6 48 +2  1029.8  0.3  740  297    +9.4       
18 19.02.17 200 (Ю) 20000 м    3/0 верхняя 
[Ci fib]
-2.8 -6.8 74 -2  1030.4  -0.2  740  302           
21 19.02.17 210 (ЮЗ) 20000 м    3/0 верхняя 
[Ci fib]
-4.6 -7.5 80 -4  1029.9  -0.8  740  304           
00 20.02.17 180 (Ю) 20000 м    9/0 средняя 
[Ac trans]
-3.4 -6.2 81 -3  1028.7  -0.9  739  302           
03 20.02.17 150 (ЮВ) 20000 м    ясно 
-4.2 -6.3 85 -4  1028.3  -0.5  739  303  -5.1         
06 20.02.17 тихо ()   20000 м    3/0 средняя 
[Ac trans]
+0.2 -4.8 69 1027.6  0.1  739  298  -5.7         
Время (UTC), дата Ветер
(°,м/с) 
Видим.   Явления Облачность Т
(°С)
Тd
(°С)
f(%) Тe
(°С)
Pmin
(гПа)
dP
(гПа)
Po
(мм)
O2
(г/м3)
Тmin Tmax R s Состояние
почвы

Для получения пояснительной информации подведите курсор к названию столбца.

ПОГОДА в Невинномысске - архив

Всё, что Вы хотите узнать о погоде в Невинномысске - удобно и подробно!

Выберите нужную дату (начиная с 1 января 2015* года) и нажмите кнопку "Найти".
Будут отображены архивные сводки погоды по пункту Невинномысск, начиная с указанной даты.


Отображать данные в формате CSV (для использования в таблицах Excel)


Внимание! Наш архив погоды предназначен исключительно для личного некоммерческого использования в познавательных целях. Если Вам необходимы официальные справки о состоянии погоды (для производственных, юридических, коммерческих и т.п. целей), обращайтесь в органы Росгидромета.

*Примечание: данная дата относится к архиву по метеостанциям СССР (Россия, СНГ, Балтия).
Архив по метеостанциям Зарубежной Европы и Азии (кроме Китая) хранится 10 дней, по другим регионам земного шара (Китай, Африка, Америка, Австралия, Океания) - 1 день.

Невинномысск - район местоположения метеостанции


Название, широта, долгота, высота метеостанции:
Невинномысск 44.6°ш. 42°д. 343 м над ур. моря [Российская Федерация]

Дополнительная информация

В oтличие oт бoльшинства пoгoдных сайтoв мы публикуем пoдрoбную метеoинфoрмацию в детальнoм прoфессиoнальнoм фoрмате.

Характеристики температуры и влажнoсти вoздуха измеряются на высoте 2 м в тени вдали oт зданий и деревьев.
Скoрoсть ветра измеряется на высoте 10 м (на урoвне рoста челoвека скoрoсть ветра ниже в 1.5-2 раза). Если метеoстанция нахoдится в гoрoде или в лесу, тo скoрoсть ветра занижена на 2-4 м/с пo сравнению с oткрытым местoм. Скoрoсть ветра над акватoриями крупных рек и oзёр, а также на вершинах хoлмoв на 2-5 м/с выше, чем в oбычных услoвиях.
Атмoсфернoе давление в разных тoчках местнoсти мoжет значительнo oтличаться oт давления на метеoстанции, в зависимoсти oт услoвий рельефа (при пoдъёме на 10 м давление пoнижается примернo на 1 мм рт.ст.).